Date,TemperatureHighF,TemperatureAvgF,TemperatureLowF,DewpointHighF,DewpointAvgF,DewpointLowF,HumidityHigh,HumidityAvg,HumidityLow,PressureMaxIn,PressureMinIn,WindSpeedMaxMPH,WindSpeedAvgMPH,GustSpeedMaxMPH,PrecipitationSumIn
2013-2-11,51,45,41,46,43,41,99,95,76,29.94,29.89,2,0,2,0.00
2013-2-12,51,42,34,42,37,30,99,84,47,29.95,29.67,4,0,4,0.19
2013-2-13,47,41,33,45,40,30,99,94,83,29.79,29.53,12,2,12,0.05
2013-2-14,61,41,32,34,31,24,95,72,27,29.89,29.79,10,1,10,0.00
2013-2-15,63,39,27,41,32,25,99,80,24,29.93,29.81,11,2,11,0.00
2013-2-16,39,30,24,30,19,4,92,65,28,29.91,29.78,17,4,17,0.01
2013-2-17,44,28,17,17,8,2,72,45,22,30.06,29.91,21,3,21,0.00
2013-2-18,63,39,22,28,22,17,85,55,23,30.12,29.90,11,2,11,0.00
2013-2-19,57,42,33,44,28,9,99,64,21,29.97,29.80,22,3,22,0.32
2013-2-20,49,34,25,16,11,0,65,42,20,30.00,29.94,12,2,12,0.00
2013-2-21,72,42,23,43,22,8,99,55,13,29.99,29.77,7,1,7,0.47
2013-2-22,50,44,41,45,43,41,99,94,81,29.96,29.83,8,2,8,0.54
2013-2-23,57,48,42,53,47,41,99,95,84,29.85,29.67,7,0,7,0.52
2013-2-24,64,43,30,41,30,20,99,69,21,29.85,29.74,11,1,11,0.00
2013-2-25,54,42,31,43,34,28,96,78,43,29.84,29.64,12,1,12,0.00
2013-2-26,54,45,37,48,42,34,99,89,70,29.65,29.34,15,3,15,1.00
2013-2-27,58,43,36,40,34,30,97,72,43,29.69,29.57,15,3,15,0.01
2013-2-28,39,36,34,32,27,24,81,69,61,29.73,29.65,11,4,11,0.00
2013-3-3,36,28,23,21,17,14,84,64,42,29.84,29.76,9,3,9,0.08
2013-3-4,61,37,19,32,21,10,81,56,23,29.93,29.79,3,1,3,0.01
2013-3-5,55,46,33,52,42,26,99,85,67,29.83,29.43,18,4,18,0.53
2013-3-6,34,30,27,26,23,17,86,75,60,29.97,29.64,13,2,13,0.00
2013-3-7,52,36,28,31,27,23,86,71,41,30.04,29.93,8,3,8,0.00
2013-3-8,61,39,23,29,22,15,94,59,18,30.10,30.00,8,2,8,0.00
2013-3-9,65,52,27,34,30,23,93,46,21,30.07,30.01,6,1,6,0.00
2013-3-10,68,56,48,43,33,25,63,44,23,30.01,29.88,12,3,12,0.00
2013-3-11,61,54,48,53,50,42,99,86,63,29.89,29.61,16,3,16,0.66
2013-3-12,57,43,34,47,34,29,99,73,41,29.91,29.68,14,3,14,0.01
2013-3-13,50,36,29,30,22,17,86,59,30,30.07,29.89,15,4,15,0.00
2013-3-14,53,36,24,29,14,7,70,45,21,30.14,30.03,12,3,12,0.00
2013-3-15,74,50,28,44,35,26,97,62,27,30.06,29.80,15,2,15,0.00
2013-3-16,77,61,50,48,44,40,73,54,33,29.81,29.71,14,3,14,0.00
2013-3-17,73,60,50,52,47,43,87,65,44,29.83,29.74,13,2,13,0.00
2013-3-18,57,52,46,55,50,45,99,92,77,29.79,29.65,9,1,9,0.83
2013-3-19,61,48,35,48,31,15,99,60,22,29.93,29.71,14,3,14,0.01
2013-3-20,59,43,32,30,18,8,75,40,19,29.95,29.71,17,3,17,0.00
2013-3-21,45,32,23,26,10,-1,74,43,21,29.78,29.72,14,4,14,0.00
2013-3-22,47,37,26,32,24,11,69,58,28,29.85,29.78,2,0,2,0.00
2013-3-23,54,46,39,49,43,32,99,90,69,29.83,29.59,12,1,12,0.20
2013-3-24,64,49,38,54,46,32,99,92,62,29.68,29.31,15,2,15,1.12
2013-3-25,38,33,29,33,23,20,82,66,53,29.84,29.48,17,4,17,0.00
2013-3-26,39,32,28,28,24,21,86,72,56,30.06,29.81,14,4,14,0.01
2013-3-27,53,38,24,26,22,16,90,58,25,30.11,30.03,11,3,11,0.00
2013-3-28,58,41,25,30,23,14,90,55,22,30.14,30.05,14,2,14,0.00
2013-3-29,65,42,28,39,30,22,96,69,21,30.15,30.01,8,1,8,0.00
2013-3-30,71,54,42,52,43,33,99,73,26,30.02,29.84,10,1,10,0.26
2013-3-31,63,56,52,57,54,51,99,92,67,29.85,29.72,12,2,12,0.48
2013-4-1,68,54,40,53,44,38,99,74,38,29.89,29.72,12,2,12,0.01
2013-4-2,63,47,36,39,26,15,83,49,18,30.01,29.88,9,2,9,0.00
2013-4-3,65,50,39,35,28,23,61,43,25,30.01,29.93,8,2,8,0.00
2013-4-4,50,41,39,43,40,31,99,95,47,29.98,29.78,9,1,9,0.85
2013-4-5,66,49,40,45,39,30,99,74,31,29.93,29.76,12,2,12,0.00
2013-4-6,78,53,32,42,35,26,99,61,19,30.01,29.91,8,1,8,0.00
2013-4-7,77,60,46,47,42,37,79,55,29,30.01,29.91,8,1,8,0.00
2013-4-8,82,63,50,54,49,45,90,63,32,29.97,29.89,11,1,11,0.00
2013-4-9,86,67,50,59,53,49,99,66,34,30.04,29.92,11,2,11,0.00
2013-4-10,91,66,51,60,54,51,99,70,29,29.98,29.80,8,1,8,0.00
2013-4-11,83,69,60,65,59,54,99,73,44,29.81,29.55,14,2,14,0.72
2013-4-12,71,59,45,61,48,34,99,73,30,29.80,29.50,13,3,13,0.33
2013-4-13,76,55,38,45,36,22,99,60,16,29.89,29.79,11,2,11,0.00
2013-4-14,65,52,38,53,45,38,99,80,41,29.89,29.78,11,1,11,0.05
2013-4-15,87,65,52,60,55,52,99,75,36,30.00,29.77,7,2,7,0.01
2013-4-16,87,69,57,63,60,56,99,75,44,30.10,29.99,8,2,8,0.00
2013-4-17,91,69,60,64,61,58,99,79,36,30.08,29.93,11,1,11,0.67
2013-4-18,82,68,59,65,59,54,99,75,41,29.94,29.74,11,2,11,0.01
2013-4-19,68,58,42,64,52,34,99,82,63,29.89,29.62,15,4,15,0.79
2013-4-20,66,47,31,35,31,25,94,58,23,30.08,29.89,13,2,13,0.00
2013-4-21,74,52,33,42,34,25,99,60,17,30.16,30.06,10,1,10,0.00
2013-4-22,82,58,41,44,39,28,97,57,20,30.15,29.97,8,2,8,0.00
2013-4-23,82,60,41,47,41,33,96,56,25,30.05,29.91,9,1,9,0.00
2013-4-24,74,59,47,61,53,46,99,84,54,30.01,29.89,12,2,12,0.20
2013-4-25,73,52,37,46,35,18,99,64,14,30.16,30.00,11,2,11,0.00
2013-4-26,81,56,34,51,38,26,99,62,17,30.20,30.09,8,1,8,0.13
2013-4-27,58,53,51,53,51,50,99,93,77,30.20,29.97,7,1,7,0.58
2013-4-28,56,54,52,55,53,51,99,97,88,29.98,29.81,14,1,14,2.66
2013-4-29,81,60,51,60,53,48,99,81,36,29.88,29.80,8,1,8,0.01
2013-4-30,84,62,43,58,52,43,99,75,37,29.97,29.83,8,1,8,0.00
2013-5-1,78,64,55,58,55,51,99,74,43,30.04,29.96,10,1,10,0.00
2013-5-2,73,62,53,58,54,50,97,76,55,30.04,29.97,10,2,10,0.00
2013-5-3,67,60,57,55,53,50,89,79,58,29.99,29.81,12,3,12,0.00
2013-5-4,59,53,49,53,50,44,99,89,67,29.81,29.70,14,2,14,0.93
2013-5-5,67,53,46,56,51,45,99,94,65,29.70,29.60,6,1,6,1.09
2013-5-6,52,48,42,50,47,41,99,97,89,29.74,29.62,5,0,5,0.19
2013-5-7,79,57,46,56,50,44,99,81,35,29.83,29.70,10,1,10,0.06
2013-5-8,111,60,48,63,54,48,99,81,22,29.92,29.79,100,2,100,0.00
2013-5-9,85,65,50,61,55,48,99,75,33,29.98,29.89,8,1,8,0.00
2013-5-10,77,64,53,62,57,52,99,79,47,29.97,29.83,11,1,11,0.00
2013-5-11,81,63,56,65,60,55,99,90,52,29.86,29.75,11,1,11,0.33
2013-5-12,71,56,43,55,42,30,99,65,24,29.97,29.82,12,2,12,0.00
2013-5-13,72,52,35,43,33,22,99,57,16,30.06,29.95,11,2,11,0.00
2013-5-14,84,59,36,55,46,35,99,68,33,30.08,29.96,8,1,8,0.00
2013-5-15,92,73,52,62,55,45,99,60,22,30.03,29.89,9,1,9,0.00
2013-5-16,90,68,55,64,59,54,99,77,33,29.96,29.86,10,1,10,0.00
2013-5-17,85,69,57,66,60,55,99,77,41,29.98,29.90,8,1,8,0.00
2013-5-18,76,66,62,70,64,61,99,95,78,29.96,29.90,4,0,4,0.26
2013-5-19,70,64,58,69,63,58,99,98,91,29.98,29.81,13,1,13,0.76
2013-5-20,92,70,55,70,63,55,99,81,45,29.99,29.89,8,1,8,0.00
2013-5-21,92,74,62,73,66,61,99,79,45,29.94,29.80,6,1,6,0.00
2013-5-22,89,71,60,71,64,58,99,82,44,29.93,29.75,8,1,8,0.24
2013-5-23,86,70,61,70,59,53,99,71,40,29.87,29.79,14,2,14,0.07
2013-5-24,76,63,50,54,49,38,87,64,28,30.09,29.87,12,3,12,0.00
2013-5-25,85,60,41,52,43,30,99,62,19,30.16,30.05,11,1,11,0.00
2013-5-26,87,64,45,56,49,41,99,65,24,30.12,30.03,6,1,6,0.00
2013-5-27,92,68,50,64,56,49,99,71,32,30.09,29.99,8,1,8,0.00
2013-5-28,91,74,63,63,60,55,90,65,31,30.07,29.99,8,1,8,0.00
2013-5-29,91,72,60,64,61,52,97,72,29,30.09,30.00,6,1,6,0.00
2013-5-30,87,72,60,66,63,60,99,74,44,30.11,30.00,10,1,10,0.00
2013-5-31,87,73,63,66,64,61,96,76,47,30.08,29.96,9,1,9,0.00
2013-6-1,88,73,64,70,66,63,99,81,48,29.99,29.88,8,1,8,0.60
2013-6-2,78,70,67,75,69,66,99,96,82,29.89,29.76,10,1,10,3.99
2013-6-3,89,72,62,72,65,61,99,80,43,29.87,29.78,9,1,9,0.00
2013-6-4,92,71,58,66,62,58,99,76,35,29.91,29.85,5,1,5,0.00
2013-6-5,88,70,60,71,65,60,99,86,54,29.92,29.82,6,1,8,0.87
2013-6-6,85,70,62,73,67,61,99,90,61,29.82,29.65,6,0,6,0.15
2013-6-7,89,70,63,73,66,62,99,87,44,29.75,29.60,6,1,6,0.27
2013-6-8,86,68,59,70,64,59,99,86,52,29.97,29.75,5,0,5,0.00
2013-6-9,87,71,62,74,67,62,99,89,54,29.98,29.88,5,1,5,0.20
2013-6-10,86,71,64,68,66,63,99,86,48,29.90,29.81,10,2,10,0.27
2013-6-11,94,76,67,74,69,66,99,82,46,29.93,29.85,10,1,10,0.22
2013-6-12,98,73,64,75,69,64,99,90,43,29.97,29.88,5,0,5,0.00
2013-6-13,93,76,67,75,70,67,99,85,52,29.88,29.64,14,2,14,0.59
2013-6-14,90,71,58,67,61,57,99,75,36,29.92,29.76,9,1,9,0.01
2013-6-15,92,71,55,66,61,54,99,75,40,30.01,29.92,5,1,5,0.00
2013-6-16,94,74,59,70,64,59,99,76,39,30.03,29.90,6,1,6,0.17
2013-6-17,88,72,66,73,69,65,99,91,61,29.95,29.84,8,1,8,0.14
2013-6-18,83,70,66,75,68,66,99,95,68,29.84,29.75,8,1,8,0.26
2013-6-19,95,72,60,70,65,60,99,81,42,29.97,29.81,3,0,3,0.00
2013-6-20,89,71,62,71,65,62,99,85,47,30.09,29.97,10,1,10,1.07
2013-6-21,89,71,63,72,65,62,99,84,46,30.13,30.05,4,1,4,0.00
2013-6-22,96,73,60,67,63,59,99,77,35,30.12,29.99,5,0,5,0.00
2013-6-23,104,72,60,74,66,37,99,85,10,30.09,29.99,6,0,6,0.00
2013-6-24,92,76,64,72,68,63,99,81,46,30.11,29.99,8,1,8,0.00
2013-6-25,88,72,65,76,69,64,99,91,58,30.06,29.93,4,0,4,0.24
2013-6-26,90,75,65,76,69,65,99,85,54,29.97,29.83,8,1,8,0.00
2013-6-27,92,76,69,75,71,68,99,86,53,29.89,29.72,9,2,9,0.13
2013-6-28,94,76,67,76,70,66,99,83,44,29.77,29.58,8,1,8,0.87
2013-6-29,93,74,64,74,64,58,99,76,36,29.64,29.58,8,1,8,0.01
2013-6-30,93,74,60,68,62,51,99,73,30,29.70,29.61,8,0,8,0.00
2013-7-1,84,70,63,71,66,62,99,89,55,29.81,29.68,5,0,5,0.09
2013-7-2,88,72,64,74,67,63,99,86,53,29.97,29.81,8,1,8,0.22
2013-7-3,72,67,65,69,67,64,99,98,88,30.05,29.95,4,0,4,0.65
2013-7-4,75,68,65,72,68,64,99,97,89,30.05,29.97,8,0,8,0.47
2013-7-5,84,70,66,71,68,66,99,93,64,30.08,30.00,5,0,5,0.15
2013-7-6,70,68,67,70,68,66,99,99,98,30.04,29.99,3,0,3,0.91
2013-7-7,85,72,68,74,70,67,99,92,61,30.06,29.98,4,0,4,0.06
2013-7-8,91,75,68,79,71,67,99,88,48,30.09,30.00,4,0,4,0.43
2013-7-9,95,76,68,76,72,68,99,88,51,30.07,29.97,4,0,4,0.27
2013-7-10,90,75,68,76,71,67,99,88,57,30.01,29.86,10,1,10,0.32
2013-7-11,91,75,69,74,71,68,99,89,53,29.88,29.78,3,0,3,0.02
2013-7-12,90,76,66,72,68,64,99,80,43,29.87,29.79,9,1,9,0.00
2013-7-13,83,71,64,70,66,62,99,86,60,29.96,29.85,8,0,8,0.00
2013-7-14,81,71,67,73,68,66,99,91,72,30.11,29.95,8,1,8,0.22
2013-7-15,93,75,65,74,68,64,98,81,50,30.18,30.10,7,1,7,0.04
2013-7-16,97,78,66,75,70,66,99,78,42,30.21,30.12,4,0,4,0.02
2013-7-17,98,77,65,74,70,65,99,81,40,30.19,30.05,6,0,6,0.12
2013-7-18,96,77,67,74,70,66,99,80,46,30.13,29.96,4,0,4,0.01
2013-7-19,89,76,68,74,70,67,99,84,55,30.03,29.89,5,0,5,0.00
2013-7-20,71,70,68,70,68,67,98,96,95,29.94,29.91,2,0,2,0.00
2013-7-21,90,74,67,73,69,67,99,86,54,29.93,29.85,5,1,5,0.04
2013-7-22,87,74,68,74,70,67,98,88,57,29.91,29.77,4,1,4,0.14
2013-7-23,84,75,65,72,69,65,99,84,66,29.86,29.74,9,1,9,0.01
2013-7-24,90,75,68,73,69,67,98,83,51,29.80,29.72,6,1,6,0.00
2013-7-25,96,74,62,69,65,58,99,78,29,29.92,29.78,11,1,11,0.00
2013-7-26,92,73,60,73,66,59,99,82,46,29.97,29.87,6,1,7,0.25
2013-7-27,87,72,65,72,67,64,99,87,55,29.91,29.79,7,1,7,0.00
2013-7-28,87,72,63,71,65,62,99,82,48,29.95,29.82,6,0,6,0.00
2013-7-29,89,69,58,63,60,54,99,75,34,30.07,29.94,6,1,6,0.00
2013-7-30,96,72,57,69,61,48,99,74,23,30.11,30.00,4,0,4,0.00
2013-7-31,80,71,67,73,68,65,97,91,77,30.03,29.87,2,0,4,0.50
2013-8-1,90,74,66,74,68,65,99,83,46,29.89,29.83,8,1,8,0.11
2013-8-2,93,74,62,70,65,60,99,78,38,29.94,29.85,5,0,5,0.00
2013-8-3,85,73,63,72,67,62,99,82,52,29.96,29.89,8,0,8,0.00
2013-8-4,90,75,65,72,67,63,99,78,45,29.95,29.89,9,1,9,0.00
2013-8-5,94,73,60,70,64,59,98,76,37,29.97,29.88,5,0,5,0.00
2013-8-6,86,74,67,72,68,64,96,82,55,29.92,29.85,4,0,4,0.01
2013-8-7,86,74,69,75,71,69,98,92,67,29.95,29.87,4,0,4,0.27
2013-8-8,93,77,69,76,71,68,99,84,54,29.96,29.89,5,0,5,0.01
2013-8-9,94,76,68,78,71,67,99,86,54,30.00,29.91,4,0,5,0.61
2013-8-10,90,76,69,78,72,68,98,87,56,30.04,29.97,4,0,4,0.54
2013-8-11,92,75,67,77,71,67,99,89,59,30.05,29.97,4,0,4,0.45
2013-8-12,88,74,68,78,71,67,99,91,67,30.02,29.89,8,0,8,0.46
2013-8-13,90,75,69,73,70,67,99,85,50,29.91,29.78,9,1,9,0.08
2013-8-14,83,71,64,68,64,60,97,80,52,29.92,29.81,10,1,10,0.00
2013-8-15,82,68,59,66,61,57,99,80,51,29.97,29.90,6,1,6,0.01
2013-8-16,73,64,58,63,60,57,99,88,69,29.99,29.92,6,0,6,0.05
2013-8-17,72,65,61,64,61,58,97,89,70,30.01,29.96,4,0,4,0.37
2013-8-18,78,68,63,70,66,62,99,93,70,30.06,29.97,3,0,3,0.41
2013-8-19,90,71,65,73,68,64,99,90,52,30.04,29.94,4,0,4,0.53
2013-8-20,83,72,62,73,67,62,99,87,60,30.07,29.98,4,0,4,0.01
2013-8-21,80,70,66,73,68,66,99,93,73,30.12,30.02,4,0,4,0.34
2013-8-22,90,74,66,73,69,66,99,87,54,30.07,29.95,5,0,5,0.31
2013-8-23,90,74,67,73,68,65,99,85,46,30.00,29.92,4,0,4,0.01
2013-8-24,88,72,65,69,66,64,99,81,50,30.14,29.96,5,0,5,0.00
2013-8-25,88,72,59,65,61,58,98,72,42,30.24,30.12,4,0,4,0.00
2013-8-26,88,69,58,67,61,57,99,78,43,30.20,30.03,4,0,4,0.00
2013-8-27,88,70,58,68,64,58,99,82,48,30.06,29.94,5,0,5,0.00
2013-8-28,91,74,62,72,66,61,99,81,47,29.97,29.89,7,1,7,0.00
2013-8-29,92,76,65,73,69,65,99,81,49,29.94,29.85,7,1,7,0.00
2013-8-30,93,75,66,73,70,66,98,84,48,29.93,29.84,7,1,7,0.00
2013-8-31,92,76,68,74,70,67,99,83,49,29.89,29.77,5,0,5,0.00
2013-9-1,89,73,68,73,69,67,98,89,59,29.85,29.76,5,1,5,0.18
2013-9-2,84,73,67,73,68,66,99,87,58,29.88,29.78,8,1,8,0.00
2013-9-3,90,75,67,75,67,62,99,80,45,29.90,29.77,11,1,11,0.01
2013-9-4,90,72,63,69,65,62,99,82,43,30.01,29.89,4,0,4,0.00
2013-9-5,92,71,63,68,64,61,99,82,42,30.04,29.98,5,0,5,0.00
2013-9-6,91,72,60,68,64,59,99,79,42,30.05,29.96,5,0,5,0.00
2013-9-7,89,71,59,69,64,58,99,81,44,30.02,29.91,6,0,6,0.00
2013-9-8,89,72,60,70,65,60,99,81,43,29.93,29.86,7,0,7,0.00
2013-9-9,92,73,61,71,67,61,99,83,44,30.03,29.91,6,0,6,0.00
2013-9-10,92,74,61,71,66,61,99,80,43,30.12,30.03,4,0,4,0.01
2013-9-11,93,74,61,69,66,61,99,80,44,30.13,30.01,4,0,4,0.00
2013-9-12,87,74,64,71,67,63,99,82,53,30.01,29.82,7,1,7,0.27
2013-9-13,83,69,55,68,62,52,99,80,43,29.84,29.75,8,1,8,0.01
2013-9-14,84,62,48,60,54,48,99,79,36,29.97,29.81,5,0,5,0.00
2013-9-15,86,66,52,65,59,51,99,81,45,30.04,29.96,7,1,7,0.00
2013-9-16,88,69,59,67,60,50,99,77,34,30.05,29.97,5,0,5,0.00
2013-9-17,77,67,60,65,59,55,98,78,55,30.11,30.01,8,1,8,0.00
2013-9-18,76,65,57,63,58,56,97,81,58,30.11,30.01,4,0,4,0.00
2013-9-19,87,67,55,65,60,54,99,82,45,30.07,29.96,4,0,4,0.00
2013-9-20,89,69,58,67,62,58,99,81,43,29.98,29.81,8,0,8,0.00
2013-9-21,69,65,59,67,63,58,98,93,84,29.83,29.63,8,1,8,1.55
2013-9-22,80,61,52,60,56,52,99,85,49,29.79,29.68,4,1,4,0.00
2013-9-23,82,62,49,64,56,49,99,83,46,29.91,29.79,6,1,6,0.01
2013-9-24,78,63,54,64,59,54,99,89,63,29.91,29.79,5,0,5,0.11
2013-9-25,67,63,62,66,62,60,99,95,85,29.79,29.72,7,0,7,1.81
2013-9-26,82,66,60,65,61,59,98,85,52,29.91,29.76,7,1,7,0.00
2013-9-27,83,64,54,62,58,53,99,85,42,30.02,29.91,4,0,4,0.00
2013-9-28,81,62,51,61,56,51,99,84,45,30.08,29.98,4,0,4,0.00
2013-9-29,77,61,50,61,55,49,99,84,47,30.02,29.91,4,0,4,0.00
2013-9-30,80,61,51,59,56,51,99,85,45,29.96,29.88,6,0,6,0.00
2013-10-1,85,62,50,64,58,50,99,87,46,30.03,29.94,3,0,4,0.00
2013-10-2,86,64,53,67,60,52,99,88,47,30.05,29.95,4,0,4,0.00
2013-10-3,86,68,60,66,62,60,99,84,46,30.03,29.95,4,0,4,0.00
2013-10-4,87,66,54,68,62,53,99,89,47,30.06,29.98,2,0,2,0.00
2013-10-5,92,67,55,68,61,54,99,84,41,30.03,29.91,4,0,4,0.00
2013-10-6,85,67,59,68,63,59,99,87,53,29.93,29.74,7,1,7,0.01
2013-10-7,72,58,49,63,53,48,99,85,52,29.89,29.71,11,2,11,0.80
2013-10-8,84,59,45,61,53,44,99,84,43,30.01,29.87,4,0,4,0.00
2013-10-9,84,57,50,61,54,50,99,92,45,30.04,29.97,3,0,3,0.00
2013-10-10,79,58,49,61,53,48,99,88,46,30.01,28.23,10,1,10,0.00
2013-10-11,81,59,45,60,52,44,99,83,39,29.93,29.86,10,1,10,0.00
2013-10-12,81,60,49,62,55,49,99,85,43,29.99,29.89,8,1,8,0.00
2013-10-13,82,61,50,64,56,50,99,87,49,30.07,29.98,6,0,6,0.00
2013-10-14,83,63,54,65,58,54,99,87,45,30.08,29.98,5,0,5,0.00
2013-10-15,76,61,53,60,56,52,99,87,54,30.03,29.91,7,0,7,0.00
2013-10-16,70,61,55,60,58,54,99,90,68,29.93,29.84,4,0,4,0.01
2013-10-17,69,62,55,68,61,53,99,95,86,29.85,29.75,8,1,8,0.09
2013-10-18,74,55,46,54,50,45,99,86,42,29.90,29.80,4,1,4,0.00
2013-10-19,66,54,48,56,50,48,99,87,59,29.85,29.78,8,1,8,0.00
2013-10-20,75,49,38,49,42,29,99,82,21,29.93,29.84,5,1,5,0.00
2013-10-21,76,51,36,53,45,35,99,83,35,29.96,29.86,6,1,6,0.00
2013-10-22,79,57,48,57,51,43,99,82,32,29.89,29.71,6,1,6,0.00
2013-10-23,58,45,35,47,39,31,99,81,46,29.91,29.68,14,2,14,0.00
2013-10-24,66,44,32,42,37,30,99,79,36,30.04,29.89,9,1,9,0.00
2013-10-25,57,36,28,39,27,18,91,71,24,30.20,30.04,9,2,9,0.00
2013-10-26,64,40,25,38,30,24,99,72,25,30.15,29.96,10,1,10,0.00
2013-10-27,64,52,42,51,45,34,96,77,57,29.99,29.93,5,1,5,0.00
2013-10-28,62,54,48,58,52,47,99,93,72,30.12,29.97,7,0,7,0.09
2013-10-29,74,57,49,58,53,49,99,89,56,30.18,30.09,4,0,4,0.00
2013-10-30,81,61,50,60,55,50,99,83,45,30.15,30.01,8,1,8,0.00
2013-10-31,72,64,58,61,58,53,94,81,65,30.03,29.64,11,2,11,0.02
2013-11-1,81,63,48,63,54,43,99,77,32,29.70,29.58,15,2,15,0.22
2013-11-2,70,50,41,51,42,36,99,77,35,29.92,29.68,13,2,13,0.00
2013-11-3,68,47,38,43,39,36,99,79,33,30.13,29.91,8,1,8,0.00
2013-11-4,68,46,33,47,37,32,99,76,33,30.24,30.13,9,1,9,0.00
2013-11-5,76,52,38,45,39,35,93,66,28,30.26,30.15,6,1,6,0.00
2013-11-6,76,60,48,56,51,36,97,74,48,30.17,29.95,10,2,10,0.00
2013-11-7,60,51,39,57,46,31,99,83,65,30.06,29.89,15,2,15,0.19
2013-11-8,43,36,32,32,29,26,80,74,63,30.15,30.05,8,2,8,0.00
2013-11-9,57,41,28,39,32,25,99,73,37,30.12,30.02,5,0,5,0.00
2013-11-10,71,47,37,44,36,31,99,69,25,30.10,30.03,5,1,5,0.00
2013-11-11,75,47,30,39,32,20,98,63,14,30.14,29.99,6,1,6,0.00
2013-11-12,51,38,26,41,29,12,99,72,51,30.25,29.97,17,4,17,0.00
2013-11-13,52,27,18,19,14,10,78,60,21,30.36,30.25,6,1,6,0.00
2013-11-14,68,36,18,27,18,14,89,56,14,30.27,30.10,7,1,7,0.00
2013-11-15,52,41,30,50,37,21,99,85,62,30.12,29.94,4,0,4,0.20
2013-11-16,65,56,49,57,53,49,99,91,73,30.05,29.97,8,1,8,0.01
2013-11-17,65,61,58,63,58,54,99,90,78,29.99,29.75,9,2,9,0.53
2013-11-18,69,56,45,64,43,31,99,65,25,29.93,29.75,12,2,12,0.02
2013-11-19,63,44,35,32,28,22,76,57,22,30.00,29.91,11,2,11,0.00
2013-11-20,66,43,30,36,31,24,95,66,23,30.14,29.99,8,1,8,0.00
2013-11-21,62,53,43,54,47,34,93,81,69,30.19,30.11,4,1,8,0.00
2013-11-22,62,58,55,57,56,53,99,93,85,30.16,30.02,4,1,4,0.07
2013-11-23,56,44,32,56,41,19,99,89,57,30.11,29.99,14,4,14,0.01
2013-11-24,45,29,21,19,11,3,67,49,22,30.26,30.10,13,3,13,0.00
2013-11-25,46,35,23,36,17,1,95,52,20,30.23,29.99,8,2,8,0.07
2013-11-26,48,42,37,47,42,36,99,99,96,29.99,29.53,10,1,10,2.81
2013-11-27,37,29,23,36,24,13,99,82,62,30.03,29.55,11,1,11,0.04
2013-11-28,56,29,16,28,19,12,89,68,22,30.25,30.02,4,0,4,0.02
2013-11-29,67,41,21,32,26,19,97,62,23,30.33,30.22,4,2,4,0.04
2013-11-30,57,55,34,30,29,26,80,39,35,30.30,29.61,4,4,4,0.00
2013-12-1,58,44,29,40,35,25,92,73,46,29.73,29.45,3,0,3,0.00
2013-12-2,48,44,41,47,43,37,99,94,81,29.45,29.27,3,0,3,0.18
2013-12-3,55,50,46,53,49,45,99,96,88,29.36,29.28,4,0,4,0.02
2013-12-4,67,57,51,60,55,51,99,93,74,29.49,29.36,5,1,5,0.01
2013-12-5,70,63,57,65,61,56,99,95,76,29.54,29.44,11,1,11,0.38
2013-12-6,77,66,48,64,60,47,99,84,61,29.56,29.40,17,4,17,0.79
2013-12-7,48,38,35,47,37,35,99,95,90,29.75,29.53,9,2,9,0.01
2013-12-8,49,44,37,48,43,36,99,97,91,29.71,29.53,6,1,6,1.57
2013-12-9,52,49,45,52,49,44,99,98,95,29.58,29.43,5,1,5,0.66
2013-12-10,47,38,26,47,34,22,99,88,62,29.75,29.40,14,2,14,0.59
2013-12-11,56,33,21,28,22,14,94,67,29,29.85,29.74,4,0,4,0.00
2013-12-12,44,30,24,23,15,0,77,56,21,29.87,29.77,9,2,9,0.00
2013-12-13,54,34,18,29,20,13,86,60,22,29.81,29.58,4,0,4,0.00
2013-12-14,51,47,42,51,42,25,99,87,49,29.61,29.26,8,1,8,0.51
2013-12-15,48,34,27,48,30,23,99,87,79,29.62,29.28,16,2,16,0.02
2013-12-16,58,35,23,34,27,21,95,75,33,29.67,29.57,7,1,7,0.00
2013-12-17,62,41,28,38,31,25,98,71,37,29.64,29.50,13,2,13,0.00
2013-12-18,54,35,27,25,18,8,72,52,20,29.75,29.63,9,1,11,0.00
2013-12-19,65,41,25,30,23,16,80,53,18,29.74,29.62,6,0,6,0.00
2013-12-20,67,50,36,52,40,28,85,68,37,29.65,29.55,10,1,10,0.00
2013-12-21,65,61,56,63,58,52,98,91,82,29.56,29.37,14,2,14,0.20
2013-12-22,68,58,52,63,56,52,98,94,78,29.55,29.33,19,1,19,1.49
2013-12-23,52,42,32,52,41,28,99,95,85,29.70,29.49,11,2,11,0.13
2013-12-24,38,29,20,28,19,12,86,68,45,29.82,29.70,12,1,12,0.00
2013-12-25,52,28,16,26,17,11,90,66,25,29.85,29.71,7,1,7,0.00
2013-12-26,55,33,22,29,23,19,93,70,31,29.79,29.69,5,1,5,0.00
2013-12-27,58,33,21,30,23,18,94,71,25,29.87,29.75,4,0,5,0.00
2013-12-28,40,33,25,40,31,22,99,91,75,29.82,29.36,3,0,3,1.00
2013-12-29,49,43,36,46,41,35,99,93,78,29.50,29.28,8,2,8,0.17
2013-12-30,44,38,34,41,36,31,99,91,78,29.63,29.47,8,1,8,0.01
2013-12-31,43,33,27,32,25,17,97,76,45,29.82,29.60,9,1,9,0.00
2014-1-1,52,35,26,33,27,22,93,72,36,29.75,29.53,4,0,4,0.01
2014-1-2,46,36,18,45,32,9,99,85,63,29.54,29.21,15,1,15,0.32